Location: Strada George Coșbuc
(47.6577°N, 23.5639°E)
Time: 10:44:07
(UTC+03:00)

ISS - Pass Details

Date: 17 October 2017
Orbit: 400 x 408 km, 51.6° (Epoch: 24 October)

Event Time Altitude Azimuth Distance (km) Brightness Sun altitude
Rises 19:15:35 0° 285° (WNW) 2,324 1.6 -7.8°
Reaches altitude 10° 19:18:17 10° 260° (W) 1,461 0.7 -8.2°
Maximum altitude 19:20:13 15° 224° (SW) 1,201 -0.7 -8.5°
Drops below altitude 10° 19:22:10 10° 187° (S) 1,458 -0.9 -8.9°
Sets 19:24:52 0° 163° (SSE) 2,314 -0.1 -9.3°
